Data supplied by UK-AIR on 8/11/2015
All Data GMT hour ending 
Status: R =Ratified P=Provisional,P*=As supplied
,,Lough Navar,,,,,,,,,,,,,,,,,,,,,,,
Date,time,"PM<sub>10</sub> particulate matter (Hourly measured)",status,unit,"Non-volatile PM<sub>10</sub> (Hourly measured)",status,unit,"Ozone",status,unit,"Volatile PM<sub>10</sub> (Hourly measured)",status,unit
 
01-01-2013,01:00,4.300,R,ugm-3 (TEOM FDMS),3.800,R,ugm-3 (TEOM FDMS),75.77008,R,ugm-3,0.500,R,ugm-3 (TEOM FDMS)
01-01-2013,02:00,1.700,R,ugm-3 (TEOM FDMS),2.200,R,ugm-3 (TEOM FDMS),72.24434,R,ugm-3,-0.500,R,ugm-3 (TEOM FDMS)
01-01-2013,03:00,0.400,R,ugm-3 (TEOM FDMS),1.900,R,ugm-3 (TEOM FDMS),67.70412,R,ugm-3,-1.500,R,ugm-3 (TEOM FDMS)
01-01-2013,04:00,4.600,R,ugm-3 (TEOM FDMS),3.900,R,ugm-3 (TEOM FDMS),68.50240,R,ugm-3,0.700,R,ugm-3 (TEOM FDMS)
01-01-2013,05:00,4.100,R,ugm-3 (TEOM FDMS),5.800,R,ugm-3 (TEOM FDMS),73.59144,R,ugm-3,-1.700,R,ugm-3 (TEOM FDMS)
01-01-2013,06:00,4.400,R,ugm-3 (TEOM FDMS),5.100,R,ugm-3 (TEOM FDMS),70.74757,R,ugm-3,-0.700,R,ugm-3 (TEOM FDMS)
01-01-2013,07:00,6.300,R,ugm-3 (TEOM FDMS),7.600,R,ugm-3 (TEOM FDMS),72.29423,R,ugm-3,-1.300,R,ugm-3 (TEOM FDMS)
01-01-2013,08:00,9.300,R,ugm-3 (TEOM FDMS),10.900,R,ugm-3 (TEOM FDMS),71.89509,R,ugm-3,-1.600,R,ugm-3 (TEOM FDMS)
01-01-2013,09:00,7.100,R,ugm-3 (TEOM FDMS),9.200,R,ugm-3 (TEOM FDMS),73.84090,R,ugm-3,-2.100,R,ugm-3 (TEOM FDMS)
01-01-2013,10:00,5.300,R,ugm-3 (TEOM FDMS),7.500,R,ugm-3 (TEOM FDMS),74.68907,R,ugm-3,-2.200,R,ugm-3 (TEOM FDMS)
01-01-2013,11:00,4.800,R,ugm-3 (TEOM FDMS),8.300,R,ugm-3 (TEOM FDMS),73.29208,R,ugm-3,-3.500,R,ugm-3 (TEOM FDMS)
01-01-2013,12:00,7.600,R,ugm-3 (TEOM FDMS),10.500,R,ugm-3 (TEOM FDMS),72.24434,R,ugm-3,-2.900,R,ugm-3 (TEOM FDMS)
01-01-2013,13:00,11.500,R,ugm-3 (TEOM FDMS),11.600,R,ugm-3 (TEOM FDMS),71.94499,R,ugm-3,-0.100,R,ugm-3 (TEOM FDMS)
01-01-2013,14:00,11.700,R,ugm-3 (TEOM FDMS),12.800,R,ugm-3 (TEOM FDMS),71.94499,R,ugm-3,-1.100,R,ugm-3 (TEOM FDMS)
01-01-2013,15:00,8.700,R,ugm-3 (TEOM FDMS),9.000,R,ugm-3 (TEOM FDMS),70.59789,R,ugm-3,-0.300,R,ugm-3 (TEOM FDMS)
01-01-2013,16:00,8.600,R,ugm-3 (TEOM FDMS),10.600,R,ugm-3 (TEOM FDMS),69.79961,R,ugm-3,-2.000,R,ugm-3 (TEOM FDMS)
01-01-2013,17:00,11.800,R,ugm-3 (TEOM FDMS),12.300,R,ugm-3 (TEOM FDMS),65.75832,R,ugm-3,-0.500,R,ugm-3 (TEOM FDMS)
01-01-2013,18:00,11.400,R,ugm-3 (TEOM FDMS),12.100,R,ugm-3 (TEOM FDMS),65.80821,R,ugm-3,-0.700,R,ugm-3 (TEOM FDMS)
01-01-2013,19:00,13.000,R,ugm-3 (TEOM FDMS),12.700,R,ugm-3 (TEOM FDMS),68.55230,R,ugm-3,0.300,R,ugm-3 (TEOM FDMS)
01-01-2013,20:00,14.000,R,ugm-3 (TEOM FDMS),14.700,R,ugm-3 (TEOM FDMS),61.66713,R,ugm-3,-0.700,R,ugm-3 (TEOM FDMS)
01-01-2013,21:00,21.700,R,ugm-3 (TEOM FDMS),22.000,R,ugm-3 (TEOM FDMS),57.92519,R,ugm-3,-0.300,R,ugm-3 (TEOM FDMS)
01-01-2013,22:00,24.700,R,ugm-3 (TEOM FDMS),24.400,R,ugm-3 (TEOM FDMS),53.93379,R,ugm-3,0.300,R,ugm-3 (TEOM FDMS)
01-01-2013,23:00,15.300,R,ugm-3 (TEOM FDMS),14.000,R,ugm-3 (TEOM FDMS),42.80777,R,ugm-3,1.300,R,ugm-3 (TEOM FDMS)
01-01-2013,24:00,28.500,R,ugm-3 (TEOM FDMS),26.600,R,ugm-3 (TEOM FDMS),43.90540,R,ugm-3,1.900,R,ugm-3 (TEOM FDMS)
02-01-2013,01:00,13.500,R,ugm-3 (TEOM FDMS),11.400,R,ugm-3 (TEOM FDMS),40.18009,R,ugm-3,2.100,R,ugm-3 (TEOM FDMS)
02-01-2013,02:00,10.500,R,ugm-3 (TEOM FDMS),9.600,R,ugm-3 (TEOM FDMS),50.69078,R,ugm-3,0.900,R,ugm-3 (TEOM FDMS)
02-01-2013,03:00,7.500,R,ugm-3 (TEOM FDMS),6.400,R,ugm-3 (TEOM FDMS),61.76692,R,ugm-3,1.100,R,ugm-3 (TEOM FDMS)
02-01-2013,04:00,3.600,R,ugm-3 (TEOM FDMS),3.500,R,ugm-3 (TEOM FDMS),67.10541,R,ugm-3,0.100,R,ugm-3 (TEOM FDMS)
02-01-2013,05:00,3.300,R,ugm-3 (TEOM FDMS),5.400,R,ugm-3 (TEOM FDMS),62.81466,R,ugm-3,-2.100,R,ugm-3 (TEOM FDMS)
02-01-2013,06:00,-0.400,R,ugm-3 (TEOM FDMS),-0.700,R,ugm-3 (TEOM FDMS),61.76692,R,ugm-3,0.300,R,ugm-3 (TEOM FDMS)
02-01-2013,07:00,0.300,R,ugm-3 (TEOM FDMS),1.100,R,ugm-3 (TEOM FDMS),60.86885,R,ugm-3,-0.800,R,ugm-3 (TEOM FDMS)
02-01-2013,08:00,0.100,R,ugm-3 (TEOM FDMS),1.800,R,ugm-3 (TEOM FDMS),59.82111,R,ugm-3,-1.700,R,ugm-3 (TEOM FDMS)
02-01-2013,09:00,0.700,R,ugm-3 (TEOM FDMS),0.900,R,ugm-3 (TEOM FDMS),59.97079,R,ugm-3,-0.200,R,ugm-3 (TEOM FDMS)
02-01-2013,10:00,2.100,R,ugm-3 (TEOM FDMS),3.700,R,ugm-3 (TEOM FDMS),65.75832,R,ugm-3,-1.600,R,ugm-3 (TEOM FDMS)
02-01-2013,11:00,0.800,R,ugm-3 (TEOM FDMS),1.600,R,ugm-3 (TEOM FDMS),64.06197,R,ugm-3,-0.800,R,ugm-3 (TEOM FDMS)
02-01-2013,12:00,2.800,R,ugm-3 (TEOM FDMS),1.700,R,ugm-3 (TEOM FDMS),59.37208,R,ugm-3,1.100,R,ugm-3 (TEOM FDMS)
02-01-2013,13:00,3.000,R,ugm-3 (TEOM FDMS),1.300,R,ugm-3 (TEOM FDMS),58.02498,R,ugm-3,1.700,R,ugm-3 (TEOM FDMS)
02-01-2013,14:00,2.600,R,ugm-3 (TEOM FDMS),2.400,R,ugm-3 (TEOM FDMS),58.47401,R,ugm-3,0.200,R,ugm-3 (TEOM FDMS)
02-01-2013,15:00,4.000,R,ugm-3 (TEOM FDMS),3.500,R,ugm-3 (TEOM FDMS),58.42412,R,ugm-3,0.500,R,ugm-3 (TEOM FDMS)
02-01-2013,16:00,7.300,R,ugm-3 (TEOM FDMS),8.100,R,ugm-3 (TEOM FDMS),55.92949,R,ugm-3,-0.800,R,ugm-3 (TEOM FDMS)
02-01-2013,17:00,10.500,R,ugm-3 (TEOM FDMS),9.200,R,ugm-3 (TEOM FDMS),55.38068,R,ugm-3,1.300,R,ugm-3 (TEOM FDMS)
02-01-2013,18:00,7.600,R,ugm-3 (TEOM FDMS),6.200,R,ugm-3 (TEOM FDMS),57.67573,R,ugm-3,1.400,R,ugm-3 (TEOM FDMS)
02-01-2013,19:00,8.100,R,ugm-3 (TEOM FDMS),6.300,R,ugm-3 (TEOM FDMS),60.12046,R,ugm-3,1.800,R,ugm-3 (TEOM FDMS)
02-01-2013,20:00,7.100,R,ugm-3 (TEOM FDMS),6.300,R,ugm-3 (TEOM FDMS),57.47616,R,ugm-3,0.800,R,ugm-3 (TEOM FDMS)
02-01-2013,21:00,4.300,R,ugm-3 (TEOM FDMS),2.000,R,ugm-3 (TEOM FDMS),55.87960,R,ugm-3,2.300,R,ugm-3 (TEOM FDMS)
02-01-2013,22:00,2.700,R,ugm-3 (TEOM FDMS),0.900,R,ugm-3 (TEOM FDMS),54.33293,R,ugm-3,1.800,R,ugm-3 (TEOM FDMS)
02-01-2013,23:00,0.400,R,ugm-3 (TEOM FDMS),-0.500,R,ugm-3 (TEOM FDMS),57.67573,R,ugm-3,0.900,R,ugm-3 (TEOM FDMS)
02-01-2013,24:00,-0.100,R,ugm-3 (TEOM FDMS),-0.500,R,ugm-3 (TEOM FDMS),64.51100,R,ugm-3,0.400,R,ugm-3 (TEOM FDMS)
03-01-2013,01:00,4.500,R,ugm-3 (TEOM FDMS),2.300,R,ugm-3 (TEOM FDMS),72.64348,R,ugm-3,2.200,R,ugm-3 (TEOM FDMS)
03-01-2013,02:00,5.400,R,ugm-3 (TEOM FDMS),3.700,R,ugm-3 (TEOM FDMS),72.44391,R,ugm-3,1.700,R,ugm-3 (TEOM FDMS)
03-01-2013,03:00,8.000,R,ugm-3 (TEOM FDMS),5.100,R,ugm-3 (TEOM FDMS),71.74542,R,ugm-3,2.900,R,ugm-3 (TEOM FDMS)
03-01-2013,04:00,11.800,R,ugm-3 (TEOM FDMS),9.000,R,ugm-3 (TEOM FDMS),69.15101,R,ugm-3,2.800,R,ugm-3 (TEOM FDMS)
03-01-2013,05:00,10.000,R,ugm-3 (TEOM FDMS),9.200,R,ugm-3 (TEOM FDMS),69.94929,R,ugm-3,0.800,R,ugm-3 (TEOM FDMS)
03-01-2013,06:00,10.800,R,ugm-3 (TEOM FDMS),8.900,R,ugm-3 (TEOM FDMS),62.91444,R,ugm-3,1.900,R,ugm-3 (TEOM FDMS)
03-01-2013,07:00,8.200,R,ugm-3 (TEOM FDMS),7.200,R,ugm-3 (TEOM FDMS),60.20362,R,ugm-3,1.000,R,ugm-3 (TEOM FDMS)
03-01-2013,08:00,8.700,R,ugm-3 (TEOM FDMS),6.800,R,ugm-3 (TEOM FDMS),54.23315,R,ugm-3,1.900,R,ugm-3 (TEOM FDMS)
03-01-2013,09:00,10.200,R,ugm-3 (TEOM FDMS),7.400,R,ugm-3 (TEOM FDMS),50.59100,R,ugm-3,2.800,R,ugm-3 (TEOM FDMS)
03-01-2013,10:00,8.600,R,ugm-3 (TEOM FDMS),4.300,R,ugm-3 (TEOM FDMS),53.78412,R,ugm-3,4.300,R,ugm-3 (TEOM FDMS)
03-01-2013,11:00,5.300,R,ugm-3 (TEOM FDMS),3.400,R,ugm-3 (TEOM FDMS),57.77552,R,ugm-3,1.900,R,ugm-3 (TEOM FDMS)
03-01-2013,12:00,1.900,R,ugm-3 (TEOM FDMS),1.200,R,ugm-3 (TEOM FDMS),62.01638,R,ugm-3,0.700,R,ugm-3 (TEOM FDMS)
03-01-2013,13:00,4.300,R,ugm-3 (TEOM FDMS),2.100,R,ugm-3 (TEOM FDMS),61.46756,R,ugm-3,2.200,R,ugm-3 (TEOM FDMS)
03-01-2013,14:00,5.300,R,ugm-3 (TEOM FDMS),3.000,R,ugm-3 (TEOM FDMS),62.46541,R,ugm-3,2.300,R,ugm-3 (TEOM FDMS)
03-01-2013,15:00,4.200,R,ugm-3 (TEOM FDMS),2.400,R,ugm-3 (TEOM FDMS),64.36133,R,ugm-3,1.800,R,ugm-3 (TEOM FDMS)
03-01-2013,16:00,2.100,R,ugm-3 (TEOM FDMS),1.300,R,ugm-3 (TEOM FDMS),62.86455,R,ugm-3,0.800,R,ugm-3 (TEOM FDMS)
03-01-2013,17:00,1.900,R,ugm-3 (TEOM FDMS),1.600,R,ugm-3 (TEOM FDMS),62.46541,R,ugm-3,0.300,R,ugm-3 (TEOM FDMS)
03-01-2013,18:00,8.600,R,ugm-3 (TEOM FDMS),5.300,R,ugm-3 (TEOM FDMS),65.60864,R,ugm-3,3.300,R,ugm-3 (TEOM FDMS)
03-01-2013,19:00,14.900,R,ugm-3 (TEOM FDMS),12.000,R,ugm-3 (TEOM FDMS),65.25939,R,ugm-3,2.900,R,ugm-3 (TEOM FDMS)
03-01-2013,20:00,13.800,R,ugm-3 (TEOM FDMS),12.100,R,ugm-3 (TEOM FDMS),62.36563,R,ugm-3,1.700,R,ugm-3 (TEOM FDMS)
03-01-2013,21:00,16.500,R,ugm-3 (TEOM FDMS),14.800,R,ugm-3 (TEOM FDMS),63.96219,R,ugm-3,1.700,R,ugm-3 (TEOM FDMS)
03-01-2013,22:00,15.200,R,ugm-3 (TEOM FDMS),13.100,R,ugm-3 (TEOM FDMS),64.01208,R,ugm-3,2.100,R,ugm-3 (TEOM FDMS)
03-01-2013,23:00,13.800,R,ugm-3 (TEOM FDMS),10.400,R,ugm-3 (TEOM FDMS),66.40692,R,ugm-3,3.400,R,ugm-3 (TEOM FDMS)
03-01-2013,24:00,9.100,R,ugm-3 (TEOM FDMS),6.100,R,ugm-3 (TEOM FDMS),65.35918,R,ugm-3,3.000,R,ugm-3 (TEOM FDMS)
04-01-2013,01:00,9.100,R,ugm-3 (TEOM FDMS),6.600,R,ugm-3 (TEOM FDMS),65.85810,R,ugm-3,2.500,R,ugm-3 (TEOM FDMS)
04-01-2013,02:00,5.000,R,ugm-3 (TEOM FDMS),2.300,R,ugm-3 (TEOM FDMS),70.44821,R,ugm-3,2.700,R,ugm-3 (TEOM FDMS)
04-01-2013,03:00,4.400,R,ugm-3 (TEOM FDMS),1.100,R,ugm-3 (TEOM FDMS),70.34843,R,ugm-3,3.300,R,ugm-3 (TEOM FDMS)
04-01-2013,04:00,6.400,R,ugm-3 (TEOM FDMS),3.400,R,ugm-3 (TEOM FDMS),70.64778,R,ugm-3,3.000,R,ugm-3 (TEOM FDMS)
04-01-2013,05:00,5.600,R,ugm-3 (TEOM FDMS),3.900,R,ugm-3 (TEOM FDMS),72.74327,R,ugm-3,1.700,R,ugm-3 (TEOM FDMS)
04-01-2013,06:00,9.200,R,ugm-3 (TEOM FDMS),7.300,R,ugm-3 (TEOM FDMS),71.04692,R,ugm-3,1.900,R,ugm-3 (TEOM FDMS)
04-01-2013,07:00,7.700,R,ugm-3 (TEOM FDMS),2.700,R,ugm-3 (TEOM FDMS),73.34198,R,ugm-3,5.000,R,ugm-3 (TEOM FDMS)
04-01-2013,08:00,2.800,R,ugm-3 (TEOM FDMS),1.700,R,ugm-3 (TEOM FDMS),69.74972,R,ugm-3,1.100,R,ugm-3 (TEOM FDMS)
04-01-2013,09:00,3.000,R,ugm-3 (TEOM FDMS),0.200,R,ugm-3 (TEOM FDMS),69.94929,R,ugm-3,2.800,R,ugm-3 (TEOM FDMS)
04-01-2013,10:00,0.600,R,ugm-3 (TEOM FDMS),-0.300,R,ugm-3 (TEOM FDMS),69.79961,R,ugm-3,0.900,R,ugm-3 (TEOM FDMS)
04-01-2013,11:00,2.400,R,ugm-3 (TEOM FDMS),1.300,R,ugm-3 (TEOM FDMS),65.75832,R,ugm-3,1.100,R,ugm-3 (TEOM FDMS)
04-01-2013,12:00,2.400,R,ugm-3 (TEOM FDMS),2.100,R,ugm-3 (TEOM FDMS),63.46326,R,ugm-3,0.300,R,ugm-3 (TEOM FDMS)
04-01-2013,13:00,1.200,R,ugm-3 (TEOM FDMS),0.300,R,ugm-3 (TEOM FDMS),62.91444,R,ugm-3,0.900,R,ugm-3 (TEOM FDMS)
04-01-2013,14:00,1.800,R,ugm-3 (TEOM FDMS),0.000,R,ugm-3 (TEOM FDMS),63.36348,R,ugm-3,1.800,R,ugm-3 (TEOM FDMS)
04-01-2013,15:00,2.000,R,ugm-3 (TEOM FDMS),-0.300,R,ugm-3 (TEOM FDMS),60.91874,R,ugm-3,2.300,R,ugm-3 (TEOM FDMS)
04-01-2013,16:00,5.900,R,ugm-3 (TEOM FDMS),1.600,R,ugm-3 (TEOM FDMS),64.46111,R,ugm-3,4.300,R,ugm-3 (TEOM FDMS)
04-01-2013,17:00,4.500,R,ugm-3 (TEOM FDMS),0.700,R,ugm-3 (TEOM FDMS),66.10756,R,ugm-3,3.800,R,ugm-3 (TEOM FDMS)
04-01-2013,18:00,4.300,R,ugm-3 (TEOM FDMS),0.700,R,ugm-3 (TEOM FDMS),65.15961,R,ugm-3,3.600,R,ugm-3 (TEOM FDMS)
04-01-2013,19:00,3.000,R,ugm-3 (TEOM FDMS),0.300,R,ugm-3 (TEOM FDMS),62.66498,R,ugm-3,2.700,R,ugm-3 (TEOM FDMS)
04-01-2013,20:00,3.200,R,ugm-3 (TEOM FDMS),1.500,R,ugm-3 (TEOM FDMS),63.81251,R,ugm-3,1.700,R,ugm-3 (TEOM FDMS)
04-01-2013,21:00,3.800,R,ugm-3 (TEOM FDMS),1.400,R,ugm-3 (TEOM FDMS),64.66068,R,ugm-3,2.400,R,ugm-3 (TEOM FDMS)
04-01-2013,22:00,4.000,R,ugm-3 (TEOM FDMS),1.800,R,ugm-3 (TEOM FDMS),62.56520,R,ugm-3,2.200,R,ugm-3 (TEOM FDMS)
04-01-2013,23:00,5.300,R,ugm-3 (TEOM FDMS),1.800,R,ugm-3 (TEOM FDMS),62.91444,R,ugm-3,3.500,R,ugm-3 (TEOM FDMS)
04-01-2013,24:00,5.200,R,ugm-3 (TEOM FDMS),3.700,R,ugm-3 (TEOM FDMS),63.86240,R,ugm-3,1.500,R,ugm-3 (TEOM FDMS)
05-01-2013,01:00,4.300,R,ugm-3 (TEOM FDMS),3.100,R,ugm-3 (TEOM FDMS),62.26584,R,ugm-3,1.200,R,ugm-3 (TEOM FDMS)
05-01-2013,02:00,5.500,R,ugm-3 (TEOM FDMS),3.400,R,ugm-3 (TEOM FDMS),62.06627,R,ugm-3,2.100,R,ugm-3 (TEOM FDMS)
05-01-2013,03:00,5.700,R,ugm-3 (TEOM FDMS),4.300,R,ugm-3 (TEOM FDMS),62.36563,R,ugm-3,1.400,R,ugm-3 (TEOM FDMS)
05-01-2013,04:00,7.500,R,ugm-3 (TEOM FDMS),4.900,R,ugm-3 (TEOM FDMS),62.31573,R,ugm-3,2.600,R,ugm-3 (TEOM FDMS)
05-01-2013,05:00,10.200,R,ugm-3 (TEOM FDMS),6.100,R,ugm-3 (TEOM FDMS),63.86240,R,ugm-3,4.100,R,ugm-3 (TEOM FDMS)
05-01-2013,06:00,11.100,R,ugm-3 (TEOM FDMS),6.400,R,ugm-3 (TEOM FDMS),66.60649,R,ugm-3,4.700,R,ugm-3 (TEOM FDMS)
05-01-2013,07:00,10.800,R,ugm-3 (TEOM FDMS),6.500,R,ugm-3 (TEOM FDMS),62.06627,R,ugm-3,4.300,R,ugm-3 (TEOM FDMS)
05-01-2013,08:00,9.200,R,ugm-3 (TEOM FDMS),6.000,R,ugm-3 (TEOM FDMS),63.96219,R,ugm-3,3.200,R,ugm-3 (TEOM FDMS)
05-01-2013,09:00,8.700,R,ugm-3 (TEOM FDMS),6.800,R,ugm-3 (TEOM FDMS),67.90369,R,ugm-3,1.900,R,ugm-3 (TEOM FDMS)
05-01-2013,10:00,11.700,R,ugm-3 (TEOM FDMS),9.800,R,ugm-3 (TEOM FDMS),70.69767,R,ugm-3,1.900,R,ugm-3 (TEOM FDMS)
05-01-2013,11:00,12.000,R,ugm-3 (TEOM FDMS),9.900,R,ugm-3 (TEOM FDMS),73.04262,R,ugm-3,2.100,R,ugm-3 (TEOM FDMS)
05-01-2013,12:00,8.900,R,ugm-3 (TEOM FDMS),8.600,R,ugm-3 (TEOM FDMS),72.39402,R,ugm-3,0.300,R,ugm-3 (TEOM FDMS)
05-01-2013,13:00,9.900,R,ugm-3 (TEOM FDMS),8.400,R,ugm-3 (TEOM FDMS),71.09681,R,ugm-3,1.500,R,ugm-3 (TEOM FDMS)
05-01-2013,14:00,11.200,R,ugm-3 (TEOM FDMS),8.400,R,ugm-3 (TEOM FDMS),67.90369,R,ugm-3,2.800,R,ugm-3 (TEOM FDMS)
05-01-2013,15:00,7.300,R,ugm-3 (TEOM FDMS),7.400,R,ugm-3 (TEOM FDMS),67.45466,R,ugm-3,-0.100,R,ugm-3 (TEOM FDMS)
05-01-2013,16:00,8.400,R,ugm-3 (TEOM FDMS),6.200,R,ugm-3 (TEOM FDMS),64.01208,R,ugm-3,2.200,R,ugm-3 (TEOM FDMS)
05-01-2013,17:00,3.200,R,ugm-3 (TEOM FDMS),2.500,R,ugm-3 (TEOM FDMS),61.86670,R,ugm-3,0.700,R,ugm-3 (TEOM FDMS)
05-01-2013,18:00,5.900,R,ugm-3 (TEOM FDMS),5.500,R,ugm-3 (TEOM FDMS),64.91014,R,ugm-3,0.400,R,ugm-3 (TEOM FDMS)
05-01-2013,19:00,9.300,R,ugm-3 (TEOM FDMS),4.900,R,ugm-3 (TEOM FDMS),60.81896,R,ugm-3,4.400,R,ugm-3 (TEOM FDMS)
05-01-2013,20:00,9.000,R,ugm-3 (TEOM FDMS),7.500,R,ugm-3 (TEOM FDMS),57.22670,R,ugm-3,1.500,R,ugm-3 (TEOM FDMS)
05-01-2013,21:00,7.300,R,ugm-3 (TEOM FDMS),4.800,R,ugm-3 (TEOM FDMS),34.72518,R,ugm-3,2.500,R,ugm-3 (TEOM FDMS)
05-01-2013,22:00,5.600,R,ugm-3 (TEOM FDMS),0.600,R,ugm-3 (TEOM FDMS),15.91571,R,ugm-3,5.000,R,ugm-3 (TEOM FDMS)
05-01-2013,23:00,6.600,R,ugm-3 (TEOM FDMS),2.400,R,ugm-3 (TEOM FDMS),12.37334,R,ugm-3,4.200,R,ugm-3 (TEOM FDMS)
05-01-2013,24:00,0.700,R,ugm-3 (TEOM FDMS),-1.100,R,ugm-3 (TEOM FDMS),13.32130,R,ugm-3,1.800,R,ugm-3 (TEOM FDMS)
06-01-2013,01:00,-0.700,R,ugm-3 (TEOM FDMS),-0.900,R,ugm-3 (TEOM FDMS),12.50639,R,ugm-3,0.200,R,ugm-3 (TEOM FDMS)
06-01-2013,02:00,3.900,R,ugm-3 (TEOM FDMS),1.500,R,ugm-3 (TEOM FDMS),31.93120,R,ugm-3,2.400,R,ugm-3 (TEOM FDMS)
06-01-2013,03:00,6.400,R,ugm-3 (TEOM FDMS),3.900,R,ugm-3 (TEOM FDMS),39.46497,R,ugm-3,2.500,R,ugm-3 (TEOM FDMS)
06-01-2013,04:00,,,,,,,29.93550,R,ugm-3,,,
06-01-2013,05:00,-2.700,R,ugm-3 (TEOM FDMS),-1.600,R,ugm-3 (TEOM FDMS),50.09207,R,ugm-3,-1.100,R,ugm-3 (TEOM FDMS)
06-01-2013,06:00,6.700,R,ugm-3 (TEOM FDMS),3.700,R,ugm-3 (TEOM FDMS),59.02283,R,ugm-3,3.000,R,ugm-3 (TEOM FDMS)
06-01-2013,07:00,5.900,R,ugm-3 (TEOM FDMS),3.900,R,ugm-3 (TEOM FDMS),54.33293,R,ugm-3,2.000,R,ugm-3 (TEOM FDMS)
06-01-2013,08:00,3.200,R,ugm-3 (TEOM FDMS),2.300,R,ugm-3 (TEOM FDMS),58.77337,R,ugm-3,0.900,R,ugm-3 (TEOM FDMS)
06-01-2013,09:00,-0.100,R,ugm-3 (TEOM FDMS),-0.100,R,ugm-3 (TEOM FDMS),70.14886,R,ugm-3,0.000,R,ugm-3 (TEOM FDMS)
06-01-2013,10:00,4.200,R,ugm-3 (TEOM FDMS),3.100,R,ugm-3 (TEOM FDMS),67.70412,R,ugm-3,1.100,R,ugm-3 (TEOM FDMS)
06-01-2013,11:00,4.800,R,ugm-3 (TEOM FDMS),2.700,R,ugm-3 (TEOM FDMS),66.90584,R,ugm-3,2.100,R,ugm-3 (TEOM FDMS)
06-01-2013,12:00,4.600,R,ugm-3 (TEOM FDMS),3.300,R,ugm-3 (TEOM FDMS),68.20305,R,ugm-3,1.300,R,ugm-3 (TEOM FDMS)
06-01-2013,13:00,6.300,R,ugm-3 (TEOM FDMS),3.400,R,ugm-3 (TEOM FDMS),68.40262,R,ugm-3,2.900,R,ugm-3 (TEOM FDMS)
06-01-2013,14:00,7.900,R,ugm-3 (TEOM FDMS),5.900,R,ugm-3 (TEOM FDMS),66.45681,R,ugm-3,2.000,R,ugm-3 (TEOM FDMS)
06-01-2013,15:00,8.500,R,ugm-3 (TEOM FDMS),6.100,R,ugm-3 (TEOM FDMS),64.56090,R,ugm-3,2.400,R,ugm-3 (TEOM FDMS)
06-01-2013,16:00,8.600,R,ugm-3 (TEOM FDMS),5.600,R,ugm-3 (TEOM FDMS),62.66498,R,ugm-3,3.000,R,ugm-3 (TEOM FDMS)
06-01-2013,17:00,5.900,R,ugm-3 (TEOM FDMS),3.700,R,ugm-3 (TEOM FDMS),62.36563,R,ugm-3,2.200,R,ugm-3 (TEOM FDMS)
06-01-2013,18:00,4.400,R,ugm-3 (TEOM FDMS),2.000,R,ugm-3 (TEOM FDMS),62.71487,R,ugm-3,2.400,R,ugm-3 (TEOM FDMS)
06-01-2013,19:00,6.300,R,ugm-3 (TEOM FDMS),4.100,R,ugm-3 (TEOM FDMS),60.81896,R,ugm-3,2.200,R,ugm-3 (TEOM FDMS)
06-01-2013,20:00,2.400,R,ugm-3 (TEOM FDMS),1.500,R,ugm-3 (TEOM FDMS),59.02283,R,ugm-3,0.900,R,ugm-3 (TEOM FDMS)
06-01-2013,21:00,6.300,R,ugm-3 (TEOM FDMS),5.100,R,ugm-3 (TEOM FDMS),57.62584,R,ugm-3,1.200,R,ugm-3 (TEOM FDMS)
06-01-2013,22:00,5.600,R,ugm-3 (TEOM FDMS),5.000,R,ugm-3 (TEOM FDMS),56.22885,R,ugm-3,0.600,R,ugm-3 (TEOM FDMS)
06-01-2013,23:00,1.900,R,ugm-3 (TEOM FDMS),-0.200,R,ugm-3 (TEOM FDMS),56.27874,R,ugm-3,2.100,R,ugm-3 (TEOM FDMS)
06-01-2013,24:00,2.700,R,ugm-3 (TEOM FDMS),-0.600,R,ugm-3 (TEOM FDMS),58.77337,R,ugm-3,3.300,R,ugm-3 (TEOM FDMS)
07-01-2013,01:00,2.700,R,ugm-3 (TEOM FDMS),0.400,R,ugm-3 (TEOM FDMS),52.61996,R,ugm-3,2.300,R,ugm-3 (TEOM FDMS)
07-01-2013,02:00,3.600,R,ugm-3 (TEOM FDMS),0.600,R,ugm-3 (TEOM FDMS),61.66713,R,ugm-3,3.000,R,ugm-3 (TEOM FDMS)
07-01-2013,03:00,3.100,R,ugm-3 (TEOM FDMS),0.400,R,ugm-3 (TEOM FDMS),65.15961,R,ugm-3,2.700,R,ugm-3 (TEOM FDMS)
07-01-2013,04:00,1.400,R,ugm-3 (TEOM FDMS),-1.200,R,ugm-3 (TEOM FDMS),66.65638,R,ugm-3,2.600,R,ugm-3 (TEOM FDMS)
07-01-2013,05:00,7.200,R,ugm-3 (TEOM FDMS),3.300,R,ugm-3 (TEOM FDMS),62.61509,R,ugm-3,3.900,R,ugm-3 (TEOM FDMS)
07-01-2013,06:00,6.200,R,ugm-3 (TEOM FDMS),1.200,R,ugm-3 (TEOM FDMS),63.16391,R,ugm-3,5.000,R,ugm-3 (TEOM FDMS)
07-01-2013,07:00,1.700,R,ugm-3 (TEOM FDMS),1.400,R,ugm-3 (TEOM FDMS),64.11186,R,ugm-3,0.300,R,ugm-3 (TEOM FDMS)
07-01-2013,08:00,3.800,R,ugm-3 (TEOM FDMS),0.400,R,ugm-3 (TEOM FDMS),57.87530,R,ugm-3,3.400,R,ugm-3 (TEOM FDMS)
07-01-2013,09:00,3.800,R,ugm-3 (TEOM FDMS),1.000,R,ugm-3 (TEOM FDMS),59.42197,R,ugm-3,2.800,R,ugm-3 (TEOM FDMS)
07-01-2013,10:00,1.300,R,ugm-3 (TEOM FDMS),-1.200,R,ugm-3 (TEOM FDMS),62.36563,R,ugm-3,2.500,R,ugm-3 (TEOM FDMS)
07-01-2013,11:00,0.800,R,ugm-3 (TEOM FDMS),-0.200,R,ugm-3 (TEOM FDMS),65.20950,R,ugm-3,1.000,R,ugm-3 (TEOM FDMS)
07-01-2013,12:00,2.000,R,ugm-3 (TEOM FDMS),1.000,R,ugm-3 (TEOM FDMS),67.60434,R,ugm-3,1.000,R,ugm-3 (TEOM FDMS)
07-01-2013,13:00,-0.800,R,ugm-3 (TEOM FDMS),-2.000,R,ugm-3 (TEOM FDMS),67.75402,R,ugm-3,1.200,R,ugm-3 (TEOM FDMS)
07-01-2013,14:00,-0.700,R,ugm-3 (TEOM FDMS),-2.600,R,ugm-3 (TEOM FDMS),67.55445,R,ugm-3,1.900,R,ugm-3 (TEOM FDMS)
07-01-2013,15:00,0.500,R,ugm-3 (TEOM FDMS),-0.800,R,ugm-3 (TEOM FDMS),66.35703,R,ugm-3,1.300,R,ugm-3 (TEOM FDMS)
07-01-2013,16:00,0.700,R,ugm-3 (TEOM FDMS),-0.700,R,ugm-3 (TEOM FDMS),64.16176,R,ugm-3,1.400,R,ugm-3 (TEOM FDMS)
07-01-2013,17:00,2.200,R,ugm-3 (TEOM FDMS),0.000,R,ugm-3 (TEOM FDMS),62.91444,R,ugm-3,2.200,R,ugm-3 (TEOM FDMS)
07-01-2013,18:00,2.300,R,ugm-3 (TEOM FDMS),0.000,R,ugm-3 (TEOM FDMS),62.16606,R,ugm-3,2.300,R,ugm-3 (TEOM FDMS)
07-01-2013,19:00,0.900,R,ugm-3 (TEOM FDMS),-0.600,R,ugm-3 (TEOM FDMS),57.67573,R,ugm-3,1.500,R,ugm-3 (TEOM FDMS)
07-01-2013,20:00,1.300,R,ugm-3 (TEOM FDMS),-0.400,R,ugm-3 (TEOM FDMS),60.46971,R,ugm-3,1.700,R,ugm-3 (TEOM FDMS)
07-01-2013,21:00,2.900,R,ugm-3 (TEOM FDMS),-0.500,R,ugm-3 (TEOM FDMS),62.71487,R,ugm-3,3.400,R,ugm-3 (TEOM FDMS)
07-01-2013,22:00,0.200,R,ugm-3 (TEOM FDMS),-1.000,R,ugm-3 (TEOM FDMS),62.46541,R,ugm-3,1.200,R,ugm-3 (TEOM FDMS)
07-01-2013,23:00,3.400,R,ugm-3 (TEOM FDMS),1.400,R,ugm-3 (TEOM FDMS),62.96434,R,ugm-3,2.000,R,ugm-3 (TEOM FDMS)
07-01-2013,24:00,4.000,R,ugm-3 (TEOM FDMS),1.000,R,ugm-3 (TEOM FDMS),65.45896,R,ugm-3,3.000,R,ugm-3 (TEOM FDMS)
08-01-2013,01:00,4.700,R,ugm-3 (TEOM FDMS),2.000,R,ugm-3 (TEOM FDMS),67.45466,R,ugm-3,2.700,R,ugm-3 (TEOM FDMS)
08-01-2013,02:00,1.400,R,ugm-3 (TEOM FDMS),-1.400,R,ugm-3 (TEOM FDMS),70.31516,R,ugm-3,2.800,R,ugm-3 (TEOM FDMS)
08-01-2013,03:00,2.400,R,ugm-3 (TEOM FDMS),0.400,R,ugm-3 (TEOM FDMS),70.59789,R,ugm-3,2.000,R,ugm-3 (TEOM FDMS)
08-01-2013,04:00,3.900,R,ugm-3 (TEOM FDMS),0.300,R,ugm-3 (TEOM FDMS),71.79531,R,ugm-3,3.600,R,ugm-3 (TEOM FDMS)
08-01-2013,05:00,3.000,R,ugm-3 (TEOM FDMS),0.700,R,ugm-3 (TEOM FDMS),74.98843,R,ugm-3,2.300,R,ugm-3 (TEOM FDMS)
08-01-2013,06:00,3.200,R,ugm-3 (TEOM FDMS),1.400,R,ugm-3 (TEOM FDMS),76.13596,R,ugm-3,1.800,R,ugm-3 (TEOM FDMS)
08-01-2013,07:00,2.400,R,ugm-3 (TEOM FDMS),2.200,R,ugm-3 (TEOM FDMS),77.43316,R,ugm-3,0.200,R,ugm-3 (TEOM FDMS)
08-01-2013,08:00,1.000,R,ugm-3 (TEOM FDMS),0.300,R,ugm-3 (TEOM FDMS),78.33123,R,ugm-3,0.700,R,ugm-3 (TEOM FDMS)
08-01-2013,09:00,6.700,R,ugm-3 (TEOM FDMS),4.900,R,ugm-3 (TEOM FDMS),72.74327,R,ugm-3,1.800,R,ugm-3 (TEOM FDMS)
08-01-2013,10:00,8.200,R,ugm-3 (TEOM FDMS),8.400,R,ugm-3 (TEOM FDMS),65.45896,R,ugm-3,-0.200,R,ugm-3 (TEOM FDMS)
08-01-2013,11:00,9.200,R,ugm-3 (TEOM FDMS),8.100,R,ugm-3 (TEOM FDMS),66.05767,R,ugm-3,1.100,R,ugm-3 (TEOM FDMS)
08-01-2013,12:00,9.600,R,ugm-3 (TEOM FDMS),9.900,R,ugm-3 (TEOM FDMS),61.36778,R,ugm-3,-0.300,R,ugm-3 (TEOM FDMS)
08-01-2013,13:00,14.000,R,ugm-3 (TEOM FDMS),13.500,R,ugm-3 (TEOM FDMS),71.64563,R,ugm-3,0.500,R,ugm-3 (TEOM FDMS)
08-01-2013,14:00,16.200,R,ugm-3 (TEOM FDMS),12.600,R,ugm-3 (TEOM FDMS),72.59359,R,ugm-3,3.600,R,ugm-3 (TEOM FDMS)
08-01-2013,15:00,15.900,R,ugm-3 (TEOM FDMS),12.900,R,ugm-3 (TEOM FDMS),71.64563,R,ugm-3,3.000,R,ugm-3 (TEOM FDMS)
08-01-2013,16:00,15.200,R,ugm-3 (TEOM FDMS),12.200,R,ugm-3 (TEOM FDMS),65.50885,R,ugm-3,3.000,R,ugm-3 (TEOM FDMS)
08-01-2013,17:00,27.400,R,ugm-3 (TEOM FDMS),24.400,R,ugm-3 (TEOM FDMS),35.92260,R,ugm-3,3.000,R,ugm-3 (TEOM FDMS)
08-01-2013,18:00,10.000,R,ugm-3 (TEOM FDMS),6.900,R,ugm-3 (TEOM FDMS),20.65550,R,ugm-3,3.100,R,ugm-3 (TEOM FDMS)
08-01-2013,19:00,7.800,R,ugm-3 (TEOM FDMS),5.300,R,ugm-3 (TEOM FDMS),15.26711,R,ugm-3,2.500,R,ugm-3 (TEOM FDMS)
08-01-2013,20:00,14.400,R,ugm-3 (TEOM FDMS),11.500,R,ugm-3 (TEOM FDMS),9.92861,R,ugm-3,2.900,R,ugm-3 (TEOM FDMS)
08-01-2013,21:00,21.600,R,ugm-3 (TEOM FDMS),18.500,R,ugm-3 (TEOM FDMS),8.73119,R,ugm-3,3.100,R,ugm-3 (TEOM FDMS)
08-01-2013,22:00,26.500,R,ugm-3 (TEOM FDMS),23.200,R,ugm-3 (TEOM FDMS),11.52517,R,ugm-3,3.300,R,ugm-3 (TEOM FDMS)
08-01-2013,23:00,40.100,R,ugm-3 (TEOM FDMS),35.200,R,ugm-3 (TEOM FDMS),14.91786,R,ugm-3,4.900,R,ugm-3 (TEOM FDMS)
08-01-2013,24:00,18.200,R,ugm-3 (TEOM FDMS),14.100,R,ugm-3 (TEOM FDMS),18.46023,R,ugm-3,4.100,R,ugm-3 (TEOM FDMS)
09-01-2013,01:00,17.800,R,ugm-3 (TEOM FDMS),15.200,R,ugm-3 (TEOM FDMS),13.57076,R,ugm-3,2.600,R,ugm-3 (TEOM FDMS)
09-01-2013,02:00,12.400,R,ugm-3 (TEOM FDMS),8.700,R,ugm-3 (TEOM FDMS),13.30467,R,ugm-3,3.700,R,ugm-3 (TEOM FDMS)
09-01-2013,03:00,13.900,R,ugm-3 (TEOM FDMS),11.600,R,ugm-3 (TEOM FDMS),17.71184,R,ugm-3,2.300,R,ugm-3 (TEOM FDMS)
09-01-2013,04:00,8.100,R,ugm-3 (TEOM FDMS),6.300,R,ugm-3 (TEOM FDMS),13.32130,R,ugm-3,1.800,R,ugm-3 (TEOM FDMS)
09-01-2013,05:00,9.000,R,ugm-3 (TEOM FDMS),6.700,R,ugm-3 (TEOM FDMS),15.56646,R,ugm-3,2.300,R,ugm-3 (TEOM FDMS)
09-01-2013,06:00,3.700,R,ugm-3 (TEOM FDMS),1.900,R,ugm-3 (TEOM FDMS),11.82452,R,ugm-3,1.800,R,ugm-3 (TEOM FDMS)
09-01-2013,07:00,2.700,R,ugm-3 (TEOM FDMS),1.100,R,ugm-3 (TEOM FDMS),12.87227,R,ugm-3,1.600,R,ugm-3 (TEOM FDMS)
09-01-2013,08:00,4.000,R,ugm-3 (TEOM FDMS),3.600,R,ugm-3 (TEOM FDMS),11.82452,R,ugm-3,0.400,R,ugm-3 (TEOM FDMS)
09-01-2013,09:00,5.300,R,ugm-3 (TEOM FDMS),4.600,R,ugm-3 (TEOM FDMS),7.93291,R,ugm-3,0.700,R,ugm-3 (TEOM FDMS)
09-01-2013,10:00,2.300,R,ugm-3 (TEOM FDMS),0.300,R,ugm-3 (TEOM FDMS),4.78968,R,ugm-3,2.000,R,ugm-3 (TEOM FDMS)
09-01-2013,11:00,4.300,R,ugm-3 (TEOM FDMS),3.700,R,ugm-3 (TEOM FDMS),10.12818,R,ugm-3,0.600,R,ugm-3 (TEOM FDMS)
09-01-2013,12:00,2.400,R,ugm-3 (TEOM FDMS),2.000,R,ugm-3 (TEOM FDMS),25.54496,R,ugm-3,0.400,R,ugm-3 (TEOM FDMS)
09-01-2013,13:00,3.700,R,ugm-3 (TEOM FDMS),2.600,R,ugm-3 (TEOM FDMS),31.43228,R,ugm-3,1.100,R,ugm-3 (TEOM FDMS)
09-01-2013,14:00,0.800,R,ugm-3 (TEOM FDMS),0.100,R,ugm-3 (TEOM FDMS),27.88991,R,ugm-3,0.700,R,ugm-3 (TEOM FDMS)
09-01-2013,15:00,1.400,R,ugm-3 (TEOM FDMS),0.600,R,ugm-3 (TEOM FDMS),25.49507,R,ugm-3,0.800,R,ugm-3 (TEOM FDMS)
09-01-2013,16:00,1.000,R,ugm-3 (TEOM FDMS),0.700,R,ugm-3 (TEOM FDMS),26.74238,R,ugm-3,0.300,R,ugm-3 (TEOM FDMS)
09-01-2013,17:00,3.700,R,ugm-3 (TEOM FDMS),2.400,R,ugm-3 (TEOM FDMS),23.94840,R,ugm-3,1.300,R,ugm-3 (TEOM FDMS)
09-01-2013,18:00,2.300,R,ugm-3 (TEOM FDMS),1.200,R,ugm-3 (TEOM FDMS),30.83357,R,ugm-3,1.100,R,ugm-3 (TEOM FDMS)